FW5910 Weather Reports


time (UTC)temp
C
wind
direction
speed
KPH
gust
KPH
rain 1hr
cm
rain 24hr
cm
rain mn
cm
humidity
%
barometer
mb
20260509111410 11 214 3.2 8.0 0.00 0.00 0.00 47 1015.7
20260509110905 11 215 3.2 8.0 0.00 0.00 0.00 48 1015.7
20260509110405 11 214 3.2 6.4 0.00 0.00 0.00 48 1015.5
20260509105905 11 214 3.2 8.0 0.00 0.00 0.00 49 1015.5
20260509105406 11 211 3.2 8.0 0.00 0.00 0.00 49 1015.6
20260509104404 11 238 3.2 6.4 0.00 0.00 0.00 50 1015.5
20260509103903 11 250 1.6 4.8 0.00 0.00 0.00 54 1015.5
20260509103404 11 250 1.6 4.8 0.00 0.00 0.00 52 1015.4
20260509102905 11 252 0.0 4.8 0.00 0.00 0.00 52 1015.4
20260509102403 11 257 1.6 4.8 0.00 0.00 0.00 53 1015.4
20260509101906 11 257 1.6 4.8 0.00 0.00 0.00 54 1015.4
20260509101406 11 257 1.6 4.8 0.00 0.00 0.00 54 1015.4
20260509100905 11 257 0.0 4.8 0.00 0.00 0.00 57 1015.4
20260509100406 11 261 1.6 3.2 0.00 0.00 0.00 53 1015.3
20260509095903 11 261 1.6 3.2 0.00 0.00 0.00 54 1015.2
20260509094402 11 241 1.6 6.4 0.00 0.00 0.00 56 1015.1
20260509093904 11 244 3.2 6.4 0.00 0.00 0.00 54 1015.2
20260509092903 10 247 0.0 3.2 0.00 0.00 0.00 59 1015.1
20260509092402 10 247 0.0 1.6 0.00 0.00 0.00 58 1015.0
20260509091904 10 247 0.0 3.2 0.00 0.00 0.00 58 1015.0
20260509090906 11 247 1.6 4.8 0.00 0.00 0.00 58 1015.2
20260509090406 11 247 1.6 4.8 0.00 0.00 0.00 57 1015.0
20260509085905 11 248 1.6 6.4 0.00 0.00 0.00 59 1015.1
20260509085406 11 248 4.8 6.4 0.00 0.00 0.00 56 1015.0
20260509084905 11 249 3.2 6.4 0.00 0.00 0.00 57 1015.0
20260509084405 11 218 0.0 4.8 0.00 0.00 0.00 61 1014.9
20260509083904 11 191 0.0 0.0 0.00 0.00 0.00 62 1014.8
20260509083403 11 191 0.0 0.0 0.00 0.00 0.00 61 1014.8
20260509082902 11 191 0.0 0.0 0.00 0.00 0.00 61 1014.8
20260509082403 11 184 0.0 0.0 0.00 0.00 0.00 62 1014.6
20260509081404 11 184 0.0 0.0 0.00 0.00 0.00 63 1014.5
20260509080904 11 184 0.0 0.0 0.00 0.00 0.00 63 1014.6
20260509080403 11 183 0.0 0.0 0.00 0.00 0.00 61 1014.6
20260509075903 11 183 0.0 0.0 0.00 0.00 0.00 63 1014.6
20260509074904 11 183 0.0 0.0 0.00 0.00 0.00 64 1014.6
20260509074403 11 183 0.0 0.0 0.00 0.00 0.00 64 1014.8
20260509073905 11 183 0.0 0.0 0.00 0.00 0.00 64 1014.8
20260509073402 11 184 0.0 0.0 0.00 0.00 0.00 63 1014.8
20260509072903 12 179 0.0 0.0 0.00 0.00 0.00 64 1014.6
20260509071904 12 180 0.0 0.0 0.00 0.00 0.00 64 1014.6
20260509071402 12 183 0.0 0.0 0.00 0.00 0.00 61 1014.8
20260509070402 12 183 0.0 0.0 0.00 0.00 0.00 62 1014.6
20260509065902 12 183 0.0 0.0 0.00 0.00 0.00 61 1014.5
20260509065402 12 183 0.0 0.0 0.00 0.00 0.00 62 1014.5
20260509064904 12 183 0.0 0.0 0.00 0.00 0.00 61 1014.5
20260509064406 12 184 0.0 0.0 0.00 0.00 0.00 61 1014.4
20260509063902 12 184 0.0 0.0 0.00 0.00 0.00 61 1014.5
20260509063402 12 184 0.0 0.0 0.00 0.00 0.00 60 1014.5
20260509062903 12 184 0.0 0.0 0.00 0.00 0.00 60 1014.4
20260509062404 12 184 0.0 0.0 0.00 0.00 0.00 60 1014.4
20260509061908 12 185 0.0 0.0 0.00 0.00 0.00 59 1014.3
20260509060906 12 192 1.6 3.2 0.00 0.00 0.00 58 1014.2
20260509055403 12 194 0.0 1.6 0.00 0.00 0.00 56 1014.1
20260509054902 12 197 0.0 1.6 0.00 0.00 0.00 58 1014.1
20260509054403 12 216 0.0 1.6 0.00 0.00 0.00 59 1014.1
20260509053903 12 192 0.0 4.8 0.00 0.00 0.00 58 1014.0
20260509053403 13 185 0.0 4.8 0.00 0.00 0.00 56 1013.9
20260509052902 13 184 0.0 1.6 0.00 0.00 0.00 52 1013.9
20260509052404 13 184 1.6 1.6 0.00 0.00 0.00 54 1013.9
20260509051903 13 183 1.6 3.2 0.00 0.00 0.00 54 1013.8
20260509051403 13 182 0.0 3.2 0.00 0.00 0.00 53 1013.8
20260509050904 13 182 0.0 1.6 0.00 0.00 0.00 54 1013.8
20260509050403 13 182 0.0 1.6 0.00 0.00 0.00 54 1013.8
20260509045903 13 182 0.0 1.6 0.00 0.00 0.00 55 1013.7
20260509045407 13 181 0.0 1.6 0.00 0.00 0.00 56 1013.7
20260509044905 13 181 0.0 3.2 0.00 0.00 0.00 55 1013.6
20260509044404 13 181 0.0 3.2 0.00 0.00 0.00 56 1013.7
20260509043903 13 182 0.0 3.2 0.00 0.00 0.00 51 1013.7
20260509043403 14 181 0.0 1.6 0.00 0.00 0.00 51 1013.6
20260509042904 14 182 0.0 3.2 0.00 0.00 0.00 54 1013.7
20260509042403 14 182 0.0 3.2 0.00 0.00 0.00 53 1013.6
20260509041403 14 118 1.6 6.4 0.00 0.00 0.00 56 1013.4
20260509040902 14 118 3.2 8.0 0.00 0.00 0.00 57 1013.4
20260509040406 14 101 1.6 8.0 0.00 0.00 0.00 48 1013.3
20260509035402 13 328 1.6 3.2 0.00 0.00 0.00 51 1013.2
20260509033905 14 329 1.6 4.8 0.00 0.00 0.00 53 1013.1
20260509033405 14 329 1.6 4.8 0.00 0.00 0.00 53 1012.9
20260509032904 14 329 1.6 4.8 0.00 0.00 0.00 55 1012.9
20260509032402 14 329 1.6 4.8 0.00 0.00 0.00 53 1012.8
20260509031402 15 317 1.6 4.8 0.00 0.00 0.00 55 1012.6
20260509030856 15 317 1.6 4.8 0.00 0.00 0.00 53 1012.4
20260509030352 15 347 1.6 3.2 0.00 0.00 0.00 53 1012.2
20260509025844 15 347 0.0 3.2 0.00 0.00 0.00 52 1012.1
20260509024336 15 346 1.6 6.4 0.00 0.00 0.00 52 1012.0
20260509023336 16 83 3.2 12.9 0.00 0.00 0.00 50 1011.9
20260509022835 16 329 4.8 14.5 0.00 0.00 0.00 49 1011.9
20260509022335 16 339 3.2 14.5 0.00 0.00 0.00 44 1011.7
20260509021837 16 0 1.6 6.4 0.00 0.00 0.00 41 1011.7
20260509021337 16 0 1.6 6.4 0.00 0.00 0.00 43 1011.8
20260509020836 17 0 1.6 6.4 0.00 0.00 0.00 41 1011.7
20260509020334 17 0 3.2 8.0 0.00 0.00 0.00 44 1011.6
20260509015835 17 0 3.2 8.0 0.00 0.00 0.00 41 1011.6
20260509015335 17 0 3.2 8.0 0.00 0.00 0.00 43 1011.5
20260509014834 17 0 3.2 8.0 0.00 0.00 0.00 43 1011.5
20260509014335 17 0 4.8 12.9 0.00 0.00 0.00 43 1011.5
20260509013833 17 0 3.2 12.9 0.00 0.00 0.00 43 1011.5
20260509013331 18 0 3.2 9.7 0.00 0.00 0.00 33 1011.4
20260509012833 18 0 1.6 9.7 0.00 0.00 0.00 33 1011.3
20260509012330 18 0 1.6 6.4 0.00 0.00 0.00 34 1011.3
20260509011823 18 0 3.2 8.0 0.00 0.00 0.00 37 1011.3
20260509011317 18 0 3.2 14.5 0.00 0.00 0.00 38 1011.3
20260509010812 17 0 4.8 14.5 0.00 0.00 0.00 39 1011.0
20260509010305 17 0 3.2 16.1 0.00 0.00 0.00 38 1011.2
20260509005803 17 0 3.2 9.7 0.00 0.00 0.00 45 1011.0
20260509005306 17 0 3.2 8.0 0.00 0.00 0.00 44 1010.8
20260509004804 17 0 4.8 16.1 0.00 0.00 0.00 44 1010.8
20260509004307 18 0 6.4 16.1 0.00 0.00 0.00 42 1010.7
20260509003308 18 0 4.8 19.3 0.00 0.00 0.00 37 1010.7
20260509002804 19 0 1.6 6.4 0.00 0.00 0.00 39 1010.5
20260509002306 19 0 1.6 4.8 0.00 0.00 0.00 38 1010.3
20260509001303 20 329 3.2 8.0 0.00 0.00 0.00 35 1010.3
20260509000304 20 209 0.0 1.6 0.00 0.00 0.00 36 1010.4
20260508235803 20 0 0.0 0.0 0.00 0.00 0.00 35 1010.3
20260508235306 20 0 0.0 3.2 0.00 0.00 0.00 37 1010.4
20260508234803 20 0 0.0 4.8 0.00 0.00 0.00 35 1010.4
20260508234302 20 0 1.6 4.8 0.00 0.00 0.00 34 1010.4
20260508233302 20 0 1.6 4.8 0.00 0.00 0.00 35 1010.3
20260508232803 20 0 1.6 3.2 0.00 0.00 0.00 35 1010.4
20260508232306 20 0 1.6 3.2 0.00 0.00 0.00 35 1010.4
20260508225804 20 0 4.8 11.3 0.00 0.00 0.00 33 1010.6
20260508225306 20 227 4.8 12.9 0.00 0.00 0.00 35 1010.7
20260508224804 20 112 3.2 12.9 0.00 0.00 0.00 36 1010.7
20260508224306 20 167 4.8 9.7 0.00 0.00 0.00 37 1010.7
20260508223306 20 124 3.2 11.3 0.00 0.00 0.00 36 1010.8
20260508222803 20 209 4.8 9.7 0.00 0.00 0.00 36 1010.9
20260508221805 20 142 3.2 8.0 0.00 0.00 0.00 37 1011.0
20260508221302 20 209 3.2 8.0 0.00 0.00 0.00 35 1011.2
20260508220803 20 148 3.2 8.0 0.00 0.00 0.00 36 1011.2
20260508215804 20 109 4.8 11.3 0.00 0.00 0.00 35 1011.3
20260508215306 20 194 4.8 11.3 0.00 0.00 0.00 36 1011.4
20260508214803 20 131 3.2 11.3 0.00 0.00 0.00 36 1011.4
20260508214304 20 0 3.2 12.9 0.00 0.00 0.00 37 1011.5
20260508213808 20 0 4.8 12.9 0.00 0.00 0.00 37 1011.5
20260508213306 20 0 3.2 14.5 0.00 0.00 0.00 37 1011.6
20260508212807 20 0 3.2 14.5 0.00 0.00 0.00 37 1011.6
20260508212307 19 0 1.6 8.0 0.00 0.00 0.00 37 1011.7
20260508211803 19 0 1.6 8.0 0.00 0.00 0.00 38 1011.7
20260508211302 19 0 1.6 6.4 0.00 0.00 0.00 38 1011.6
20260508210302 20 0 1.6 8.0 0.00 0.00 0.00 38 1011.7
20260508205803 20 0 1.6 8.0 0.00 0.00 0.00 38 1011.7
20260508205306 20 0 3.2 8.0 0.00 0.00 0.00 39 1011.7
20260508204804 20 0 3.2 9.7 0.00 0.00 0.00 39 1011.7
20260508204300 20 0 3.2 9.7 0.00 0.00 0.00 38 1011.7
20260508203753 20 218 4.8 11.3 0.00 0.00 0.00 38 1011.7
20260508203248 20 203 3.2 11.3 0.00 0.00 0.00 37 1011.8
20260508202743 20 129 3.2 8.0 0.00 0.00 0.00 38 1011.8
20260508202235 20 123 3.2 8.0 0.00 0.00 0.00 37 1011.8
20260508201736 20 115 3.2 8.0 0.00 0.00 0.00 37 1011.7
20260508201239 20 141 3.2 8.0 0.00 0.00 0.00 37 1011.8
20260508200736 20 190 3.2 8.0 0.00 0.00 0.00 38 1011.7
20260508200235 20 155 3.2 11.3 0.00 0.00 0.00 36 1011.9
20260508195736 20 111 3.2 11.3 0.00 0.00 0.00 37 1011.8
20260508195236 20 121 4.8 9.7 0.00 0.00 0.00 37 1011.9
20260508194736 20 92 4.8 12.9 0.00 0.00 0.00 34 1011.9
20260508194236 20 134 4.8 12.9 0.00 0.00 0.00 34 1012.0
20260508193737 20 237 6.4 16.1 0.00 0.00 0.00 34 1012.1
20260508193232 20 200 6.4 16.1 0.00 0.00 0.00 34 1012.0
20260508192732 20 242 4.8 16.1 0.00 0.00 0.00 34 1012.1
20260508192232 20 283 4.8 14.5 0.00 0.00 0.00 35 1012.1
20260508191731 20 124 4.8 11.3 0.00 0.00 0.00 35 1012.1
20260508190736 20 259 4.8 12.9 0.00 0.00 0.00 34 1012.4
20260508190234 20 140 6.4 16.1 0.00 0.00 0.00 37 1012.5
20260508185729 20 149 6.4 16.1 0.00 0.00 0.00 36 1012.5
20260508185228 20 194 4.8 16.1 0.00 0.00 0.00 36 1012.5
20260508184227 19 235 4.8 12.9 0.00 0.00 0.00 38 1012.6
20260508183725 19 223 4.8 12.9 0.00 0.00 0.00 36 1012.7
20260508183227 19 299 4.8 16.1 0.00 0.00 0.00 38 1012.8
20260508182728 19 235 4.8 16.1 0.00 0.00 0.00 36 1012.8
20260508182225 19 260 3.2 14.5 0.00 0.00 0.00 38 1012.8
20260508181726 19 239 3.2 14.5 0.00 0.00 0.00 38 1012.8
20260508181226 19 190 3.2 8.0 0.00 0.00 0.00 38 1012.9
20260508180727 18 185 3.2 12.9 0.00 0.00 0.00 39 1012.9
20260508180228 18 160 3.2 12.9 0.00 0.00 0.00 39 1013.0
20260508175726 18 253 3.2 9.7 0.00 0.00 0.00 40 1012.9
20260508175226 18 223 4.8 9.7 0.00 0.00 0.00 40 1013.0
20260508174727 18 219 3.2 9.7 0.00 0.00 0.00 42 1013.0
20260508174221 18 154 4.8 12.9 0.00 0.00 0.00 42 1013.0
20260508173717 17 205 4.8 12.9 0.00 0.00 0.00 44 1013.1
20260508173217 17 117 3.2 8.0 0.00 0.00 0.00 44 1013.2
20260508172717 17 248 3.2 8.0 0.00 0.00 0.00 45 1013.1
20260508172215 17 169 3.2 9.7 0.00 0.00 0.00 45 1013.0
20260508171715 17 151 4.8 14.5 0.00 0.00 0.00 44 1013.2
20260508171217 17 188 3.2 14.5 0.00 0.00 0.00 44 1013.2
20260508170213 17 191 3.2 9.7 0.00 0.00 0.00 48 1013.3
20260508165713 17 174 3.2 9.7 0.00 0.00 0.00 48 1013.3
20260508165213 17 41 3.2 9.7 0.00 0.00 0.00 48 1013.4
20260508164713 17 159 3.2 9.7 0.00 0.00 0.00 48 1013.4
20260508164213 16 0 3.2 6.4 0.00 0.00 0.00 53 1013.4
20260508163713 16 0 3.2 12.9 0.00 0.00 0.00 54 1013.4
20260508162713 16 0 3.2 8.0 0.00 0.00 0.00 55 1013.6
20260508161715 15 0 1.6 4.8 0.00 0.00 0.00 59 1013.6
20260508161213 15 0 3.2 4.8 0.00 0.00 0.00 59 1013.7
20260508160713 15 0 3.2 4.8 0.00 0.00 0.00 59 1013.7
20260508155715 15 0 1.6 4.8 0.00 0.00 0.00 60 1013.8
20260508155213 14 0 3.2 4.8 0.00 0.03 0.00 60 1013.8
20260508154714 14 0 3.2 4.8 0.00 0.03 0.00 61 1013.8
20260508154213 13 109 1.6 4.8 0.00 0.05 0.00 62 1013.9
20260508153213 13 0 0.0 0.0 0.00 0.05 0.00 61 1013.8
20260508152714 14 0 0.0 0.0 0.00 0.05 0.00 61 1013.8
20260508152214 13 0 0.0 1.6 0.00 0.05 0.00 62 1013.9
20260508151714 13 0 0.0 4.8 0.00 0.08 0.00 63 1014.1
20260508151214 13 0 0.0 4.8 0.00 0.08 0.00 64 1014.1
20260508150716 12 0 1.6 4.8 0.00 0.08 0.00 65 1014.1
20260508150214 12 0 1.6 4.8 0.00 0.08 0.00 65 1014.2
20260508145713 12 0 1.6 4.8 0.00 0.08 0.00 68 1014.2
20260508144713 11 74 1.6 3.2 0.00 0.08 0.00 69 1014.1
20260508144214 10 67 0.0 3.2 0.00 0.08 0.00 70 1014.2
20260508143209 9 31 0.0 3.2 0.00 0.08 0.00 73 1014.1
20260508142711 9 30 0.0 3.2 0.00 0.08 0.00 74 1014.2
20260508142209 8 26 0.0 3.2 0.00 0.08 0.00 77 1014.2
20260508141709 8 20 0.0 4.8 0.00 0.08 0.00 78 1014.2
20260508141210 8 18 0.0 4.8 0.00 0.08 0.00 80 1014.2
20260508140209 8 39 0.0 4.8 0.00 0.08 0.00 85 1014.2
20260508135710 8 316 0.0 1.6 0.00 0.08 0.00 85 1014.0
20260508135209 7 316 0.0 1.6 0.00 0.08 0.00 85 1014.0
20260508134709 7 317 0.0 0.0 0.00 0.08 0.00 85 1013.9
20260508134209 7 317 0.0 1.6 0.00 0.08 0.00 85 1014.0
20260508133708 7 317 0.0 3.2 0.00 0.08 0.00 85 1013.9
20260508133208 7 318 0.0 4.8 0.00 0.08 0.00 85 1014.0
20260508132705 7 316 0.0 4.8 0.00 0.08 0.00 85 1013.9
20260508132205 7 327 0.0 0.0 0.00 0.08 0.00 85 1013.8
20260508131703 7 328 0.0 0.0 0.00 0.08 0.00 85 1013.8
20260508131204 6 327 0.0 0.0 0.00 0.08 0.00 85 1013.7
20260508130703 6 327 0.0 0.0 0.00 0.08 0.00 85 1013.7
20260508130204 6 327 0.0 0.0 0.00 0.08 0.00 85 1013.7
20260508125703 6 327 0.0 0.0 0.00 0.08 0.00 85 1013.6
20260508125202 6 329 0.0 0.0 0.00 0.08 0.00 85 1013.6
20260508124204 6 329 0.0 0.0 0.00 0.08 0.00 84 1013.6
20260508123703 7 327 0.0 0.0 0.00 0.08 0.00 85 1013.6
20260508123202 7 327 0.0 0.0 0.00 0.08 0.00 85 1013.4
20260508122703 7 327 0.0 0.0 0.00 0.08 0.00 85 1013.6
20260508122202 7 327 0.0 0.0 0.00 0.08 0.00 85 1013.4
20260508121702 7 327 0.0 0.0 0.00 0.08 0.00 85 1013.7
20260508120703 6 327 0.0 0.0 0.00 0.08 0.00 84 1013.7
20260508120203 7 327 0.0 0.0 0.00 0.08 0.00 84 1013.8
20260508115706 7 327 0.0 3.2 0.00 0.08 0.00 84 1013.8
20260508115208 7 327 0.0 4.8 0.00 0.08 0.00 84 1013.7
20260508114708 7 327 0.0 4.8 0.00 0.08 0.00 84 1013.6
20260508114206 7 312 0.0 0.0 0.00 0.08 0.00 84 1013.6
20260508113706 7 312 0.0 0.0 0.00 0.08 0.00 84 1013.4
20260508112702 7 312 0.0 0.0 0.00 0.08 0.00 84 1013.1
20260508112203 7 312 0.0 0.0 0.00 0.08 0.00 84 1013.1